Home > Weather > Kota Kinabalu > Past weeks

Flag for Malaysia Weather for the Past 2 Weeks in Kota Kinabalu, Malaysia

Now
79 °F

Broken clouds.


Feels Like: 83 °F
Forecast: 78 / 91 °F
Wind: 6 mph from East

Location: Kota Kinabalu Airport

Current Time: Feb 9, 2016 at 7:54:57 AM

Latest Report: Feb 9, 2016 at 7:00 AM


Visibility: N/A

Pressure: 29.83 "Hg

Humidity: 94%

Dew point: 77 °F

Location of Kota KinabaluLocation

Historic Weather in Kota Kinabalu — Graph

°F

Kota Kinabalu Temperature Yesterday

Maximum temperature yesterday: 90 °F (at 12:30 PM)
Minimum temperature yesterday: 77 °F (at 4:00 AM)
Average temperature yesterday: 83 °F

High & Low Weather Summary for the Past Weeks

 TemperatureHumidityPressure
High93 °F (Jan 28, 2:00 PM)100% (Feb 6, 8:00 PM)29.98 "Hg (Feb 6, 8:00 PM)
Low73 °F (Jan 25, 6:00 AM)56% (Feb 1, 2:30 PM)29.71 "Hg (Feb 2, 4:30 PM)
Average83 °F82%29.81 "Hg
* Reported Jan 25 6:00 AM — Feb 9 6:00 AM, Kota Kinabalu, Weather by CustomWeather, © 2016

Note: Actual official high and low records may vary slightly from our data, if they occured in-between our weather recording intervals... More about our weather records

Advertising

Kota Kinabalu Weather History for the Previous 24 Hours

 ConditionsComfort  
Time TempWeatherWind HumidityBarometerVisibility
6:00 AM
Tue, Feb 9
79 °FPartly cloudy.3 mph94%29.80 "HgN/A
5:30 AM79 °FPartly cloudy.No wind94%29.77 "HgN/A
5:00 AM79 °FPartly cloudy.1 mph94%29.77 "HgN/A
4:30 AM79 °FPartly cloudy.2 mph94%29.77 "HgN/A
4:00 AM79 °FPartly cloudy.1 mph94%29.77 "HgN/A
3:30 AM79 °FPartly cloudy.No wind94%29.77 "HgN/A
3:00 AM81 °FPartly cloudy.2 mph89%29.77 "HgN/A
2:30 AM81 °FPartly cloudy.3 mph89%29.77 "HgN/A
2:00 AM81 °FPartly cloudy.1 mph94%29.77 "HgN/A
1:30 AM81 °FPartly cloudy.3 mph94%29.77 "HgN/A
1:00 AM81 °FPassing clouds.2 mph94%29.80 "HgN/A
12:30 AM81 °FPassing clouds.3 mph94%29.80 "HgN/A
12:00 AM82 °FPassing clouds.2 mph89%29.80 "HgN/A
11:30 PM
Mon, Feb 8
82 °FPassing clouds.No wind89%29.83 "HgN/A
11:00 PM82 °FPassing clouds.No wind89%29.83 "HgN/A
10:30 PM82 °FPassing clouds.3 mph89%29.80 "HgN/A
10:00 PM82 °FPassing clouds.3 mph84%29.80 "HgN/A
9:30 PM82 °FPassing clouds.3 mph84%29.80 "HgN/A
9:00 PM82 °FPassing clouds.2 mph84%29.80 "HgN/A
8:30 PM82 °FPassing clouds.2 mph84%29.77 "HgN/A
8:00 PM82 °FPassing clouds.5 mph84%29.77 "HgN/A
7:30 PM82 °FPassing clouds.3 mph89%29.77 "HgN/A
7:00 PM84 °FPassing clouds.5 mph79%29.74 "HgN/A
6:30 PM84 °FPartly cloudy.5 mph84%29.74 "HgN/A
6:00 PM84 °FBroken clouds.6 mph84%29.74 "HgN/A
5:30 PM86 °FPartly sunny.8 mph79%29.71 "HgN/A
5:00 PM86 °FPartly sunny.8 mph79%29.71 "HgN/A
4:30 PM86 °FPartly sunny.8 mph79%29.71 "HgN/A
4:00 PM88 °FPartly sunny.8 mph75%29.71 "HgN/A
3:30 PM88 °FPartly sunny.8 mph75%29.71 "HgN/A
3:00 PM90 °FPartly sunny.7 mph71%29.74 "HgN/A
2:30 PM90 °FPartly sunny.6 mph71%29.74 "HgN/A
2:00 PM90 °FPartly sunny.5 mph71%29.74 "HgN/A
1:30 PM90 °FPartly sunny.2 mph71%29.77 "HgN/A
1:00 PM90 °FPartly sunny.3 mph75%29.77 "HgN/A
12:30 PM90 °FPartly sunny.3 mph71%29.80 "HgN/A
12:00 PM88 °FPartly sunny.2 mph75%29.80 "HgN/A
11:30 AM88 °FPartly sunny.3 mph75%29.83 "HgN/A
11:00 AM88 °FPartly sunny.2 mph75%29.83 "HgN/A
10:30 AM86 °FPartly sunny.3 mph75%29.83 "HgN/A
10:00 AM84 °FPartly sunny.2 mph79%29.83 "HgN/A
9:30 AM84 °FPartly sunny.2 mph84%29.83 "HgN/A
9:00 AM82 °FPartly sunny.1 mph84%29.83 "HgN/A
8:30 AM82 °FPartly sunny.1 mph84%29.83 "HgN/A
7:30 AM79 °FPartly sunny.1 mph94%29.83 "HgN/A
7:00 AM77 °FPartly sunny.2 mph94%29.83 "HgN/A
Weather by CustomWeather, © 2016

See weather overviewHow to use our weather pages